Cloud_Cover
24 68 92 92 88 92 92 88 80 80 80 80 92 88 88 88 88 80 80 88 88 92 92 92 92 92 92 92 100 92 92 92 92 92 92 92 92 92 92 88 80 92 92 92 92 92 92 88 80 56 48 44 44 36 24 20 20 12 12 8 8 0 0 0 0 0 0 0 0 0 8 20 24 12 12 20 44 36 36 36 32 8 0 0 0 0 0 0 0 0 0 0 0 0 0 0 0 20 20 12 32 36 32
92 92 92 92 88 92 88 88 92 92 88 88 92 92 88 88 92 92 92 92 88 92 92 92 92 92 92 92 100 92 92 92 92 92 92 92 92 92 92 88 80 92 92 92 92 92 92 80 68 56 44 44 44 36 32 24 20 12 8 0 0 0 0 0 0 0 0 0 0 0 20 36 48 20 12 36 88 88 88 76 36 12 0 0 0 0 0 0 0 0 0 0 0 0 0 0 0 0 8 8 8 0 0
92 92 92 92 88 88 80 76 88 88 88 92 92 92 92 92 92 92 88 88 92 92 92 92 92 92 92 92 100 92 92 92 92 92 92 92 92 92 92 88 76 88 92 92 92 92 80 68 64 48 48 44 44 36 32 24 12 8 0 0 0 0 0 0 0 0 0 0 0 12 32 48 64 48 64 80 80 88 88 68 8 0 0 0 0 0 0 0 0 0 0 0 0 0 0 0 0 0 0 8 8 8 0
92 92 92 92 92 92 80 76 68 80 88 88 92 92 92 92 92 88 92 92 92 92 92 92 92 92 92 92 92 92 92 92 92 92 92 92 92 92 92 88 76 88 92 92 92 92 80 68 64 56 48 48 44 36 24 20 8 0 0 0 0 0 0 0 0 0 0 0 8 20 44 64 76 80 68 56 48 68 76 56 0 0 0 0 0 0 0 0 0 0 0 0 0 0 0 0 0 0 0 0 0 0 0
92 92 92 92 92 92 92 92 92 88 80 80 92 92 92 92 92 92 92 92 100 100 100 100 100 100 92 92 92 92 92 92 92 92 92 92 92 92 92 92 88 92 92 88 88 92 80 68 56 56 48 48 44 32 20 12 0 0 0 0 0 0 0 0 0 0 0 0 20 32 48 68 88 88 76 56 44 48 44 24 0 0 0 0 8 0 0 0 0 0 0 0 0 0 0 0 0 0 0 0 0 0 0
88 92 92 92 92 92 92 88 88 80 88 88 92 92 92 92 92 92 92 92 100 100 100 100 100 100 92 92 92 92 92 92 92 92 92 92 92 92 92 92 92 92 88 80 68 80 76 64 56 56 48 44 44 24 12 8 0 0 0 0 0 0 0 0 0 0 0 8 20 36 56 68 80 80 80 68 56 32 20 12 8 0 0 0 0 0 0 0 0 0 0 0 0 0 0 0 0 0 0 0 0 0 0
80 88 88 88 88 92 92 92 92 80 88 88 88 92 92 92 92 92 92 92 100 100 100 100 100 100 92 92 92 92 92 92 92 92 92 92 92 92 92 92 92 88 80 76 76 80 68 56 48 48 44 44 36 20 8 0 0 0 0 0 0 0 0 0 0 0 8 12 20 44 64 68 64 68 76 68 32 20 8 0 0 0 8 8 0 0 0 0 0 0 0 0 0 0 0 0 0 0 0 0 0 0 0
88 88 88 88 92 88 88 88 80 88 88 88 92 92 92 92 92 92 92 92 100 100 100 100 100 92 92 92 92 92 92 92 92 88 88 92 92 92 92 92 92 88 76 68 76 76 68 56 48 44 44 36 32 24 12 0 0 0 0 0 0 0 0 0 0 8 12 20 24 56 68 76 56 56 44 24 8 0 0 0 8 0 8 8 0 0 0 0 0 0 0 0 0 0 0 0 0 0 0 0 0 0 0
92 92 92 92 92 80 80 80 88 92 92 92 92 92 100 92 92 92 92 100 100 100 100 100 100 92 92 92 92 92 92 92 88 80 88 92 92 92 92 92 92 80 76 76 80 68 64 56 48 48 44 36 32 24 12 8 0 0 0 0 0 0 0 8 12 12 20 24 44 64 76 68 44 24 12 0 0 0 0 0 8 8 8 0 0 0 0 0 0 0 0 0 0 0 0 0 0 0 0 0 0 0 0
92 92 92 92 92 88 88 92 92 92 92 92 92 92 100 92 92 92 92 100 100 100 100 92 92 92 92 92 92 92 92 92 88 80 88 92 92 92 92 92 92 88 88 88 80 68 64 64 64 56 48 44 44 32 12 8 0 0 0 0 12 12 12 20 24 36 36 44 56 68 64 48 20 8 0 0 0 0 0 0 0 8 8 0 0 0 0 0 0 0 0 0 0 0 0 0 0 0 0 0 0 0 0
92 88 92 92 92 92 92 92 92 92 92 92 92 92 100 92 92 92 92 92 92 92 92 92 92 92 92 92 92 92 92 92 88 76 80 92 92 92 92 92 92 92 92 88 76 68 68 68 64 56 48 48 44 32 20 12 8 8 12 20 24 20 12 20 32 36 48 64 64 80 64 32 8 0 0 0 0 0 0 0 8 8 0 0 0 0 0 0 0 0 0 0 0 0 0 0 0 0 0 0 0 0 0
92 92 92 92 92 92 92 92 92 92 92 92 92 92 100 100 100 92 92 92 92 92 92 92 92 92 92 92 92 92 92 92 88 80 88 92 92 92 92 92 92 92 92 92 76 76 76 68 68 64 56 48 48 44 32 20 12 24 32 36 32 12 12 24 44 48 56 56 44 48 36 12 0 0 8 8 8 8 0 0 0 8 8 0 0 0 0 0 0 0 0 0 0 0 0 0 0 0 0 0 0 0 0
92 88 92 92 92 92 92 92 92 92 100 100 100 100 92 92 92 92 92 92 92 92 92 92 92 92 92 92 92 92 92 92 88 92 92 92 92 92 92 92 92 92 92 88 80 80 80 80 76 68 68 68 56 56 44 32 20 36 44 44 36 20 12 20 36 44 44 32 12 20 12 8 8 8 8 8 8 0 0 0 0 8 8 0 0 0 0 0 0 0 0 0 0 0 0 0 0 0 0 0 0 0 0
80 88 92 92 92 92 92 92 92 92 100 100 100 100 92 92 92 92 92 92 92 92 92 92 92 92 92 92 92 92 92 92 80 88 92 92 92 92 88 88 88 88 88 88 80 88 92 88 80 80 76 76 68 68 56 48 48 48 48 36 32 20 8 8 12 32 32 24 24 32 24 20 20 20 12 8 8 8 0 8 12 12 8 8 0 0 0 0 0 0 0 0 0 0 0 0 0 0 0 0 0 0 0
76 88 92 92 92 92 92 92 92 92 100 100 100 100 92 92 92 92 92 92 92 92 92 92 92 92 92 92 92 92 92 92 80 80 88 92 92 92 88 88 88 88 80 80 80 92 92 88 80 76 76 76 76 76 68 64 48 48 44 36 24 12 0 0 0 8 8 8 20 24 24 24 24 20 12 8 0 8 8 12 20 12 12 8 8 0 0 0 0 0 0 0 0 0 0 0 0 0 0 0 0 0 0
64 80 92 92 92 92 92 92 92 92 100 100 100 100 92 92 92 92 92 92 92 92 92 92 92 92 92 92 92 92 92 92 88 88 88 92 88 88 88 88 88 76 76 76 80 80 80 80 76 76 88 92 92 88 68 44 36 36 32 20 12 8 8 0 0 0 8 12 20 24 24 24 20 12 8 0 0 8 12 12 20 20 12 8 8 0 0 0 0 0 0 0 0 0 0 0 0 0 0 0 0 0 0
48 76 88 92 92 92 100 92 92 92 100 100 100 100 92 92 92 92 92 92 92 92 92 92 92 92 92 92 92 92 92 88 88 92 88 80 80 80 80 80 76 76 76 76 80 76 76 76 80 88 92 92 80 56 36 32 24 24 12 8 8 12 8 0 0 12 20 20 24 20 20 20 20 8 0 0 12 12 12 20 20 20 12 8 0 0 0 0 0 0 0 0 0 0 0 0 0 0 0 0 0 0 0
44 68 88 92 92 92 100 100 100 100 100 100 100 92 92 100 100 92 92 92 92 92 92 92 92 92 92 92 92 92 92 92 92 92 88 80 80 80 80 80 80 80 80 80 76 80 80 88 92 92 92 80 48 32 24 24 20 12 8 8 12 8 8 12 20 20 20 12 0 0 8 8 8 12 12 12 20 12 20 20 20 20 12 8 0 8 8 0 0 0 0 0 0 0 0 0 0 0 0 0 0 0 0
64 80 88 92 92 92 100 100 100 100 92 92 100 92 92 92 92 92 92 92 92 92 92 92 92 92 92 92 92 92 92 92 92 92 88 80 80 76 80 80 88 88 80 80 80 80 88 88 92 92 76 56 20 20 20 12 8 8 0 0 0 8 12 20 20 12 8 0 0 0 0 0 12 20 20 20 12 20 20 20 20 8 0 8 12 12 8 8 0 0 0 0 0 0 0 0 0 0 0 0 0 0 0
56 80 92 92 92 92 92 100 100 100 92 92 92 92 92 92 92 92 92 92 92 92 92 92 92 92 92 92 92 92 92 92 92 92 88 88 80 80 88 88 88 88 80 76 68 80 88 88 92 68 44 24 20 12 8 0 0 0 0 0 12 12 12 12 12 8 0 0 0 0 8 20 20 20 20 12 12 20 20 20 12 8 8 12 12 12 8 8 0 0 0 0 0 0 0 0 0 0 0 0 0 0 0
64 88 92 92 92 92 92 100 100 92 92 92 92 92 100 100 100 92 92 92 92 92 92 92 92 92 92 92 92 92 100 92 92 92 92 92 92 88 92 92 92 88 80 76 76 76 76 76 76 44 32 20 12 0 0 0 0 0 0 0 8 12 12 8 0 0 0 0 0 8 20 24 24 20 12 12 8 20 20 20 20 12 20 20 20 12 8 8 0 0 0 8 8 0 0 0 0 0 0 0 0 0 0
48 80 92 92 92 92 92 100 100 92 92 92 92 92 92 92 92 92 100 100 100 92 92 92 92 92 92 92 92 92 92 92 92 92 88 80 80 80 80 76 80 80 76 68 68 80 88 80 80 56 44 36 24 8 0 0 0 0 0 0 8 8 8 0 0 0 0 8 24 24 24 24 24 20 12 12 12 24 24 20 20 20 20 20 20 20 12 8 0 12 12 12 8 0 0 0 0 0 0 0 0 0 0
48 76 92 92 92 92 92 92 92 92 92 92 92 92 92 92 92 92 92 92 92 92 92 92 92 92 92 92 92 92 92 92 88 80 68 64 64 64 68 68 76 68 68 68 76 80 80 76 76 76 64 48 36 20 12 8 0 0 0 0 0 0 0 0 0 8 12 20 24 24 24 24 20 20 20 20 24 24 24 20 20 24 24 24 20 20 12 12 24 24 20 12 8 8 0 0 0 0 0 0 0 0 0
56 76 88 92 92 92 92 92 92 92 92 92 100 92 92 92 92 92 92 92 92 92 92 92 92 92 92 92 92 92 92 88 76 68 56 44 44 48 56 68 76 76 76 80 88 80 76 68 68 64 56 56 44 24 20 8 0 0 0 0 0 0 0 8 8 12 20 24 24 24 24 20 12 12 12 20 32 36 36 32 32 32 32 24 20 12 20 24 32 24 20 8 8 0 0 0 0 0 0 0 0 0 0
88 76 88 92 92 92 92 92 92 92 92 92 100 92 92 92 92 92 92 92 92 92 92 92 92 92 92 92 92 92 92 88 80 76 64 44 44 44 64 76 80 88 88 88 80 68 64 56 56 48 44 32 24 20 12 8 0 0 0 0 0 8 8 12 12 20 24 24 24 20 20 12 0 8 20 36 48 44 44 44 36 32 24 20 12 12 12 20 24 20 20 12 0 0 0 0 0 0 0 0 0 0 0
44 80 92 92 92 92 92 92 92 92 92 92 100 100 92 92 92 92 92 92 92 92 92 92 92 92 92 92 92 92 92 88 76 68 56 48 44 56 76 88 88 88 80 76 64 56 44 36 36 32 24 12 12 8 8 0 0 0 0 0 0 8 12 12 20 24 24 24 24 12 8 8 8 32 44 48 48 48 44 44 36 32 24 20 12 12 12 12 20 12 12 8 0 0 0 0 0 0 0 0 0 0 0
48 80 92 92 92 92 92 92 92 92 92 92 100 100 92 92 92 100 92 92 92 92 92 92 92 92 92 92 92 92 88 80 64 56 48 48 68 76 80 80 80 68 48 36 36 24 24 24 20 12 12 8 0 0 0 0 0 0 0 0 8 8 12 20 24 24 24 24 24 20 12 20 20 36 48 48 48 44 44 44 36 32 24 20 12 8 8 8 8 8 8 0 0 0 0 0 0 0 0 0 0 0 0
56 80 92 92 92 92 92 92 92 92 92 100 100 100 92 92 92 100 92 92 92 92 92 92 92 92 92 92 88 88 80 76 64 56 56 64 68 76 68 56 48 44 32 20 12 12 20 20 12 12 8 8 0 0 0 0 0 0 8 8 12 12 12 20 20 24 24 24 24 24 24 32 32 36 36 36 44 36 36 36 32 24 24 20 20 8 0 0 0 0 0 0 0 0 0 0 0 0 0 0 0 0 0
76 76 88 92 92 92 92 100 100 100 100 100 100 92 92 92 92 100 92 92 92 92 92 92 92 92 92 88 76 80 80 80 68 76 76 76 68 64 48 32 24 24 12 8 0 12 12 12 12 8 8 0 0 0 0 8 8 0 8 12 12 12 12 20 24 24 24 32 32 32 32 32 32 36 32 32 32 32 32 24 24 24 20 20 8 0 0 0 0 0 0 0 0 0 0 0 0 0 0 0 0 0 0
88 88 92 92 92 92 92 92 100 100 100 100 100 92 92 92 92 100 92 92 92 92 92 92 92 92 92 92 88 88 88 88 80 76 80 76 64 48 36 24 12 12 8 8 8 12 12 12 12 8 8 8 8 8 8 8 8 8 12 12 12 12 20 24 24 32 32 32 32 32 32 32 32 32 24 24 24 24 20 20 20 20 12 12 0 0 0 0 0 0 0 0 0 0 0 0 0 0 0 0 0 0 0
92 88 92 92 92 92 92 92 100 100 92 92 92 92 92 92 92 92 92 92 92 92 92 92 92 92 92 88 88 88 80 80 80 80 80 76 56 44 36 24 8 8 0 8 12 12 12 12 8 8 8 12 12 12 12 12 12 20 20 20 12 20 20 24 24 24 24 24 24 24 24 24 20 20 12 12 12 12 12 12 12 12 8 8 0 0 0 0 0 0 0 0 0 0 0 0 0 0 0 0 0 0 0
88 88 92 92 92 92 92 92 100 100 92 92 92 92 92 92 92 92 92 92 92 92 92 92 92 92 92 88 80 76 76 80 88 88 80 68 48 44 36 24 8 0 0 8 12 12 12 8 8 12 12 20 20 12 12 20 24 32 24 24 20 20 20 20 20 12 12 20 24 24 20 20 12 8 8 8 8 8 8 8 8 8 8 0 0 0 0 0 0 0 0 0 0 0 0 0 0 0 0 0 0 0 0
92 92 92 92 92 92 92 92 100 100 100 92 92 92 92 92 92 92 92 92 92 92 92 92 92 92 92 88 68 80 88 88 88 80 76 64 44 44 32 20 8 8 0 8 8 8 8 12 20 20 20 20 24 24 24 32 32 32 24 20 12 12 12 12 8 8 12 20 20 20 20 12 8 0 0 0 8 8 8 8 8 0 0 0 0 0 0 0 0 0 0 0 0 0 0 0 0 0 0 0 0 0 0
92 92 92 92 92 92 92 92 100 100 100 92 92 92 92 92 92 92 92 92 92 92 92 92 92 92 88 80 80 92 92 88 80 68 64 48 36 36 32 24 8 8 8 8 12 20 24 32 32 32 32 32 32 32 32 32 24 24 20 12 12 12 8 8 8 8 12 12 12 12 8 8 0 0 0 0 8 8 8 0 0 0 0 0 0 0 0 0 0 0 0 0 0 0 0 0 0 0 0 0 0 0 0
92 92 92 92 92 92 92 92 100 100 100 92 92 92 92 92 92 92 92 92 92 92 92 92 92 92 80 80 92 92 88 80 68 56 48 44 32 36 32 20 8 8 8 12 20 32 36 44 44 36 36 36 32 32 32 32 20 20 12 12 12 8 8 8 8 8 8 8 8 8 8 0 0 0 0 8 8 8 8 0 0 0 0 0 0 0 0 0 0 0 0 0 0 0 0 0 0 0 0 0 0 0 0
92 92 92 92 92 92 92 100 100 100 100 92 92 92 92 92 92 92 92 92 92 92 92 92 92 88 88 88 92 88 80 76 64 56 48 36 32 32 24 20 8 8 12 20 24 36 44 44 44 36 36 32 24 24 32 24 20 12 12 8 8 8 8 8 8 8 8 8 8 0 0 0 0 0 8 8 8 0 0 0 0 0 0 0 0 0 0 0 0 0 0 0 0 0 0 0 0 0 0 0 0 0 0
92 92 92 92 92 92 92 92 100 100 100 92 92 92 92 92 92 92 92 92 92 92 92 92 92 92 92 92 92 88 80 76 56 56 48 44 32 36 36 32 32 24 24 32 36 36 32 32 36 32 32 24 24 24 24 24 20 12 12 8 8 8 8 8 8 8 8 0 0 0 0 0 0 0 8 8 8 0 0 0 0 0 0 0 0 0 0 0 0 0 0 0 0 0 0 0 0 0 0 0 0 0 0
92 92 92 92 92 92 92 92 100 92 92 92 92 92 92 92 92 92 92 92 92 92 92 92 88 92 92 88 88 80 76 68 56 48 48 44 32 44 44 36 36 36 36 36 44 44 32 24 24 24 32 32 32 32 24 20 20 12 12 8 8 8 8 8 0 8 8 0 0 0 0 0 0 8 8 8 8 8 0 0 0 0 0 0 0 0 0 0 0 0 0 0 0 0 0 0 0 0 0 0 0 0 0
92 92 92 92 92 92 92 92 92 92 92 92 92 92 92 92 92 92 92 92 92 92 92 92 92 92 88 80 88 80 76 68 64 56 64 64 56 56 48 44 44 44 36 32 32 36 32 20 24 32 32 32 32 24 20 20 20 12 8 8 8 8 8 8 8 0 0 0 0 0 0 0 8 8 8 8 8 8 0 0 0 0 0 0 0 0 0 0 0 0 0 0 0 0 0 0 0 0 0 0 0 0 0
92 92 92 92 92 92 92 92 92 92 92 92 92 92 92 92 92 92 92 92 92 92 92 92 92 92 92 88 88 88 80 80 68 68 64 64 48 48 48 56 44 44 36 36 36 36 32 32 36 36 32 32 32 24 20 20 20 12 12 8 8 8 8 0 0 0 8 8 8 0 0 8 8 8 8 8 8 0 0 0 0 0 0 0 0 0 0 0 0 8 8 0 0 0 0 0 0 0 0 0 0 0 0
92 92 92 92 92 92 92 92 92 92 92 92 100 92 92 92 92 88 88 88 92 92 92 92 88 88 92 92 92 80 80 80 80 76 68 56 48 44 44 44 44 44 36 36 36 44 44 36 36 36 32 32 32 24 20 20 20 12 12 8 8 8 8 0 0 0 8 12 8 8 8 8 8 8 8 8 0 0 0 0 0 0 0 0 8 0 0 0 8 8 8 0 0 0 0 0 0 0 0 0 0 0 0
92 92 92 92 92 92 92 92 92 92 100 100 100 92 92 92 92 92 88 88 92 92 92 92 92 92 92 92 88 88 88 88 88 80 68 56 44 36 36 32 24 32 36 36 36 44 36 36 36 32 32 32 32 24 20 20 20 20 12 12 8 8 8 0 0 8 12 12 8 8 8 8 8 8 8 8 0 0 0 0 0 0 0 0 0 0 0 0 8 0 0 0 0 0 0 0 0 0 0 0 0 0 0
100 92 92 92 92 92 92 92 92 92 100 92 92 92 92 92 92 92 92 92 92 92 92 92 92 92 92 92 92 88 88 88 80 76 68 56 44 32 32 32 36 36 32 32 36 36 36 36 36 36 36 32 24 24 24 20 20 20 20 12 20 20 20 12 8 8 8 8 8 8 8 8 8 8 8 8 0 0 0 0 0 0 0 0 0 0 0 0 0 0 0 0 0 0 0 0 0 0 0 0 0 0 0
100 100 92 92 92 92 92 92 92 92 100 92 92 92 92 92 92 92 92 92 92 92 92 92 92 92 92 88 88 80 80 76 64 56 56 48 36 36 32 32 36 32 32 32 36 36 36 36 44 32 32 24 24 24 24 20 20 20 12 12 20 20 20 12 8 8 8 12 12 8 8 8 8 8 0 0 0 0 0 8 8 0 0 0 0 0 0 0 0 0 0 0 0 0 0 0 0 0 0 0 0 0 0
100 100 92 92 92 92 92 92 92 92 92 92 92 92 92 92 92 92 92 92 92 92 92 92 92 92 88 80 76 68 64 64 48 48 44 44 36 32 32 36 32 32 32 36 36 36 36 36 32 24 24 20 20 20 20 20 12 12 20 24 20 20 20 12 8 8 12 20 20 12 8 8 8 0 0 0 0 8 8 8 8 0 0 0 0 0 0 0 0 0 0 0 0 0 0 0 0 0 0 0 0 0 0
92 92 92 92 92 92 92 92 92 92 92 92 92 92 92 92 88 64 68 80 80 88 88 88 88 92 80 76 68 68 68 64 48 48 44 36 32 36 36 36 36 36 36 36 36 36 32 24 20 20 20 12 12 12 12 12 12 20 24 32 24 20 12 12 8 12 20 20 20 8 8 8 0 0 0 0 0 8 8 8 8 0 0 0 0 0 0 0 0 0 0 0 0 0 0 0 0 0 0 0 0 0 0
92 92 92 92 92 92 92 92 92 92 92 92 92 92 92 88 80 64 68 76 64 80 80 88 92 92 88 80 80 80 76 68 64 56 48 44 44 44 36 36 36 32 32 32 32 20 12 12 12 12 12 8 12 12 12 12 12 20 24 32 24 20 20 12 12 20 20 20 12 12 8 0 0 0 0 0 0 8 8 8 8 8 0 0 0 0 0 0 0 0 0 0 0 0 0 0 0 0 0 0 0 0 0
88 88 88 92 92 92 92 92 92 92 92 92 92 92 92 88 80 80 76 76 80 80 88 88 92 92 92 92 92 92 80 68 64 56 56 48 48 48 48 44 36 32 24 20 8 8 8 8 8 8 8 8 12 12 12 12 12 20 24 24 24 20 20 12 12 12 12 12 12 8 8 0 0 0 0 8 8 8 8 0 0 8 0 0 0 0 0 0 0 0 0 0 0 0 0 0 0 0 0 0 0 0 0
80 76 80 88 92 92 92 92 92 92 92 92 92 92 92 92 92 88 88 88 88 88 88 92 88 88 88 88 80 68 56 44 44 48 48 56 64 64 48 36 24 12 8 8 0 0 0 8 8 8 8 8 8 8 8 8 8 8 12 20 24 20 20 12 12 12 12 8 8 8 8 0 0 8 8 8 8 0 0 0 8 0 0 0 0 0 0 0 0 0 0 0 0 0 0 0 0 0 0 0 0 0 0
80 88 92 88 88 88 88 88 88 92 92 92 92 92 92 92 92 92 88 88 88 80 80 80 64 48 56 64 48 44 44 48 56 56 56 48 48 36 24 12 8 8 0 0 0 0 0 0 0 0 8 8 8 8 8 8 8 0 8 20 20 20 20 12 12 12 12 8 8 8 8 8 8 8 8 8 0 0 0 0 0 0 0 0 0 0 0 0 0 0 0 0 0 0 0 0 0 0 0 0 0 0 0
68 76 80 92 92 92 92 92 92 88 92 92 92 92 92 92 92 92 88 88 80 76 68 64 44 36 36 48 56 64 64 56 56 36 32 20 12 12 8 8 8 8 8 0 8 8 8 8 8 8 8 8 8 8 8 8 8 8 8 12 20 20 12 12 12 12 8 8 8 8 8 8 8 8 8 8 0 0 0 0 0 0 0 0 0 0 0 0 0 0 0 0 0 0 0 0 0 0 0 0 0 0 0
68 76 80 88 88 88 88 88 88 88 92 92 92 92 92 92 92 92 88 80 64 64 56 48 36 32 32 36 36 44 44 36 32 20 12 8 8 8 0 0 8 8 0 0 0 0 8 8 8 8 8 8 8 8 8 0 0 0 8 12 12 12 12 12 12 8 8 8 8 8 8 8 8 8 8 0 0 0 0 0 0 0 0 0 0 0 0 0 0 0 0 0 0 0 0 0 0 0 0 0 0 0 0
80 76 76 80 80 88 88 88 88 88 88 88 88 88 88 88 88 88 76 64 48 48 48 36 24 20 20 20 20 20 20 20 12 8 8 0 0 0 0 8 8 8 8 8 0 0 8 8 8 8 8 8 0 0 0 0 0 0 8 8 12 12 12 12 8 8 8 8 8 8 8 8 8 8 0 0 0 0 0 0 0 0 0 0 0 0 0 0 0 0 0 0 0 0 0 0 0 0 0 0 0 0 0
88 76 68 76 76 76 76 80 80 88 88 88 88 88 88 80 80 76 68 64 48 44 36 32 20 12 12 12 12 12 12 8 8 8 8 8 8 8 8 8 8 8 8 8 8 8 0 0 8 8 8 0 0 0 0 0 0 0 0 8 8 8 8 8 8 8 8 8 8 8 8 8 8 8 0 0 0 0 0 0 0 0 0 0 0 0 0 0 0 0 0 0 0 0 0 0 0 0 0 0 0 0 0
92 76 68 68 80 76 68 76 76 80 80 80 80 80 80 80 80 80 76 68 44 44 36 32 20 12 12 12 12 12 12 8 8 8 8 8 8 8 8 8 8 8 8 8 8 8 0 0 0 0 0 0 0 0 0 0 0 0 0 0 8 8 8 8 8 8 8 8 8 8 8 0 0 0 0 0 0 0 0 0 0 0 0 0 0 0 0 0 0 0 0 0 0 0 0 0 0 0 0 0 0 0 0
88 80 76 76 88 76 68 68 68 76 80 80 80 80 80 80 80 80 76 68 44 44 44 36 32 24 20 20 20 20 12 8 8 8 8 8 8 8 12 12 12 12 12 8 8 8 8 0 0 0 0 0 0 0 0 0 0 0 0 0 8 8 8 8 8 8 8 12 12 8 8 0 0 0 0 0 0 0 0 0 0 0 0 0 0 0 0 0 0 0 0 0 0 0 0 0 0 0 0 0 0 0 0
88 88 80 76 80 80 76 76 76 80 80 88 88 88 80 76 76 68 68 64 56 48 48 48 44 36 36 32 32 24 20 12 12 12 8 12 12 12 12 12 12 12 12 8 8 8 8 8 0 0 0 0 0 0 0 0 0 0 8 8 8 8 8 8 8 8 12 20 12 8 8 0 0 0 0 0 0 0 0 0 0 0 0 0 0 0 0 0 0 0 0 0 0 0 0 0 0 0 0 0 0 0 0
88 88 80 76 76 80 80 80 80 80 80 80 80 80 76 76 68 68 68 68 68 64 64 64 56 56 48 44 44 32 24 20 20 12 12 20 20 20 20 12 12 12 8 8 8 8 8 8 8 8 8 8 8 8 8 8 8 8 8 8 8 8 8 8 8 12 12 12 12 8 0 0 0 0 0 0 0 0 0 0 0 0 0 0 0 0 0 0 0 0 0 0 0 0 0 0 0 0 0 0 0 0 0
76 80 80 80 76 76 76 76 80 76 76 76 76 68 68 68 68 68 68 68 68 68 68 68 68 64 64 56 48 44 36 36 32 32 32 24 24 24 20 12 12 12 12 12 12 12 12 8 8 8 8 8 8 8 8 8 8 8 8 8 8 8 8 8 8 8 8 8 8 0 0 0 0 0 0 0 0 0 0 0 0 0 0 0 0 0 0 0 0 0 0 0 0 0 0 0 0 0 0 0 0 0 0
64 76 88 92 88 76 68 64 76 76 76 68 68 64 56 56 56 64 64 64 64 64 64 68 68 64 64 56 56 48 48 44 44 44 44 36 36 32 24 24 24 24 24 24 20 20 20 20 12 12 12 12 8 8 8 8 8 8 8 8 8 8 8 8 8 8 8 0 0 0 0 0 0 0 0 0 0 0 0 0 0 0 0 0 0 0 0 0 0 0 0 0 0 0 0 0 0 0 0 0 0 0 0
68 76 80 92 92 88 68 56 64 68 68 68 64 64 64 64 56 56 56 56 56 56 56 56 56 56 56 56 56 56 56 48 48 48 48 44 44 36 36 36 32 32 32 32 24 24 24 20 20 12 12 8 8 8 8 12 12 12 8 8 8 8 8 8 8 8 0 0 0 0 0 0 0 0 0 0 0 0 0 0 0 0 0 0 0 0 0 0 0 0 0 0 0 0 0 0 0 0 0 0 0 0 8